,,Stat6,,Stat2,,Stat8,,Stat9,,Stat10,,Wind1,,Wind1,
time,status,PA1M_AVG,status,PR1M_SUM,status,RH1M_AVG,status,SR1M_AVG,status,TA1M_AVG,status,W1dAve1m,status,W1sAve1m,
2005-03-04, 00:00:01,VALID,922.65,VALID,0,VALID,84.5795,VALID,0,VALID,22.0252,VALID,101,VALID,1.50353,
2005-03-04, 00:01:00,VALID,922.619,VALID,0,VALID,84.5515,VALID,-0.0169808,VALID,22.0104,VALID,84,VALID,2.5258,
2005-03-04, 00:02:00,VALID,922.606,VALID,0,VALID,84.7919,VALID,-0.0339617,VALID,21.984,VALID,106,VALID,2.21855,
2005-03-04, 00:03:01,VALID,922.593,VALID,0,VALID,84.8224,VALID,0.0169808,VALID,21.9549,VALID,113,VALID,2.16933,
2005-03-04, 00:04:00,VALID,922.577,VALID,0,VALID,84.9038,VALID,0,VALID,21.932,VALID,129,VALID,1.61147,
2005-03-04, 00:05:01,VALID,922.548,VALID,0,VALID,84.9356,VALID,0,VALID,21.9229,VALID,67,VALID,1.89965,
2005-03-04, 00:06:00,VALID,922.551,VALID,0,VALID,84.9597,VALID,0,VALID,21.9191,VALID,79,VALID,1.40495,
2005-03-04, 00:07:00,VALID,922.539,VALID,0,VALID,84.9864,VALID,0,VALID,21.9226,VALID,89,VALID,1.40661,
2005-03-04, 00:08:01,VALID,922.527,VALID,0,VALID,84.9826,VALID,0,VALID,21.9035,VALID,76,VALID,2.01864,
2005-03-04, 00:09:00,VALID,922.536,VALID,0,VALID,84.9623,VALID,0,VALID,21.9065,VALID,43,VALID,2.17355,
2005-03-04, 00:10:00,VALID,922.554,VALID,0,VALID,85.2077,VALID,-0.0339617,VALID,21.9261,VALID,69,VALID,2.30378,
2005-03-04, 00:11:00,VALID,922.556,VALID,0,VALID,85.0144,VALID,0,VALID,21.9,VALID,83,VALID,2.63906,
2005-03-04, 00:12:00,VALID,922.579,VALID,0,VALID,84.9521,VALID,-0.0339617,VALID,21.9102,VALID,119,VALID,2.05469,
2005-03-04, 00:13:00,VALID,922.569,VALID,0,VALID,84.9915,VALID,-0.0339617,VALID,21.9261,VALID,106,VALID,1.59428,
2005-03-04, 00:14:00,VALID,922.591,VALID,0,VALID,85.2789,VALID,0,VALID,21.9296,VALID,57,VALID,2.2606,
2005-03-04, 00:15:01,VALID,922.62,VALID,0,VALID,85.3094,VALID,-0.0679233,VALID,21.8994,VALID,57,VALID,1.60194,
2005-03-04, 00:16:01,VALID,922.63,VALID,0,VALID,85.1581,VALID,-0.0169808,VALID,21.897,VALID,99,VALID,2.64757,
2005-03-04, 00:17:00,VALID,922.619,VALID,0,VALID,85.4111,VALID,0,VALID,21.8612,VALID,87,VALID,2.86754,
2005-03-04, 00:18:00,VALID,922.603,VALID,0,VALID,85.0551,VALID,-0.0679233,VALID,21.8674,VALID,106,VALID,3.04878,
2005-03-04, 00:19:00,VALID,922.606,VALID,0,VALID,85.1517,VALID,-0.0509425,VALID,21.8844,VALID,103,VALID,2.9269,
2005-03-04, 00:20:00,VALID,922.592,VALID,0,VALID,84.9801,VALID,-0.0169808,VALID,21.8841,VALID,113,VALID,1.67289,
2005-03-04, 00:21:01,VALID,922.566,VALID,0,VALID,84.9254,VALID,-0.0169808,VALID,21.8941,VALID,147,VALID,1.74864,
2005-03-04, 00:22:01,VALID,922.565,VALID,0,VALID,85.1975,VALID,-0.0509425,VALID,21.8973,VALID,68,VALID,1.93936,
2005-03-04, 00:23:00,VALID,922.558,VALID,0,VALID,85.3857,VALID,-0.0679233,VALID,21.8515,VALID,98,VALID,2.29204,
2005-03-04, 00:24:01,VALID,922.537,VALID,0,VALID,85.8765,VALID,-0.0339617,VALID,21.8198,VALID,98,VALID,1.94112,
2005-03-04, 00:25:00,VALID,922.524,VALID,0,VALID,86.4856,VALID,-0.0339617,VALID,21.7482,VALID,84,VALID,1.80909,
2005-03-04, 00:26:01,VALID,922.526,VALID,0,VALID,87.0464,VALID,-0.0679233,VALID,21.6706,VALID,83,VALID,1.75636,
2005-03-04, 00:27:01,VALID,922.521,VALID,0,VALID,87.096,VALID,-0.0509425,VALID,21.6101,VALID,94,VALID,1.91406,
2005-03-04, 00:28:01,VALID,922.544,VALID,0,VALID,87.7013,VALID,-0.101885,VALID,21.5517,VALID,80,VALID,1.74929,
2005-03-04, 00:29:00,VALID,922.537,VALID,0,VALID,87.6466,VALID,-0.0849042,VALID,21.4938,VALID,84,VALID,1.46819,
2005-03-04, 00:30:00,VALID,922.512,VALID,0,VALID,88.2544,VALID,-0.0339617,VALID,21.4809,VALID,61,VALID,0.943359,
2005-03-04, 00:31:00,VALID,922.493,VALID,0,VALID,88.4846,VALID,0.0339617,VALID,21.4437,VALID,103,VALID,0.670015,
2005-03-04, 00:32:00,VALID,922.504,VALID,0,VALID,88.9144,VALID,0,VALID,21.4079,VALID,76,VALID,1.64043,
2005-03-04, 00:33:01,VALID,922.496,VALID,0,VALID,89.5095,VALID,0,VALID,21.3406,VALID,75,VALID,1.92727,
2005-03-04, 00:34:01,VALID,922.496,VALID,0,VALID,89.6863,VALID,0.0509425,VALID,21.2661,VALID,76,VALID,1.28997,
2005-03-04, 00:35:00,VALID,922.499,VALID,0,VALID,89.6901,VALID,0.0169808,VALID,21.2174,VALID,86,VALID,1.73266,
2005-03-04, 00:36:01,VALID,922.525,VALID,0,VALID,90.1911,VALID,0.0169808,VALID,21.1982,VALID,75,VALID,1.42137,
2005-03-04, 00:37:01,VALID,922.561,VALID,0,VALID,90.2178,VALID,0.0169808,VALID,21.1662,VALID,77,VALID,2.17894,
2005-03-04, 00:38:00,VALID,922.524,VALID,0,VALID,90.1237,VALID,0.0169808,VALID,21.1409,VALID,111,VALID,1.05415,
2005-03-04, 00:39:00,VALID,922.522,VALID,0,VALID,90.2407,VALID,0,VALID,21.1315,VALID,115,VALID,1.39335,
2005-03-04, 00:40:00,VALID,922.558,VALID,0,VALID,90.6641,VALID,0.0339617,VALID,21.1347,VALID,93,VALID,1.20508,
2005-03-04, 00:41:01,VALID,922.575,VALID,0,VALID,91.0418,VALID,0,VALID,21.0895,VALID,46,VALID,1.61031,
2005-03-04, 00:42:01,VALID,922.583,VALID,0,VALID,91.5034,VALID,0.0339617,VALID,21.0542,VALID,39,VALID,1.79402,
2005-03-04, 00:43:01,VALID,922.581,VALID,0,VALID,91.8989,VALID,0.0339617,VALID,21.0214,VALID,40,VALID,1.0016,
2005-03-04, 00:44:01,VALID,922.549,VALID,0,VALID,91.3114,VALID,0,VALID,20.9964,VALID,50,VALID,0.882431,
2005-03-04, 00:45:00,VALID,922.547,VALID,0,VALID,91.5924,VALID,0.0169808,VALID,20.9896,VALID,44,VALID,1.09909,
2005-03-04, 00:46:01,VALID,922.529,VALID,0,VALID,91.1054,VALID,0,VALID,20.9665,VALID,54,VALID,1.66352,
2005-03-04, 00:47:00,VALID,922.543,VALID,0,VALID,91.2936,VALID,0.0169808,VALID,21.0058,VALID,55,VALID,1.64044,
2005-03-04, 00:48:00,VALID,922.527,VALID,0,VALID,90.7659,VALID,0,VALID,21.0055,VALID,72,VALID,1.6955,
2005-03-04, 00:49:00,VALID,922.507,VALID,0,VALID,90.6273,VALID,0.0339617,VALID,21.0217,VALID,92,VALID,1.47135,
2005-03-04, 00:50:01,VALID,922.523,VALID,0,VALID,89.7689,VALID,0.0169808,VALID,21.0349,VALID,71,VALID,1.59226,
2005-03-04, 00:51:01,VALID,922.555,VALID,0,VALID,90.1517,VALID,0.0169808,VALID,21.1129,VALID,38,VALID,1.70484,
2005-03-04, 00:52:01,VALID,922.548,VALID,0,VALID,90.4937,VALID,0.0169808,VALID,21.1285,VALID,21,VALID,1.41116,
2005-03-04, 00:53:00,VALID,922.558,VALID,0,VALID,91.0736,VALID,0.0169808,VALID,21.1253,VALID,360,VALID,0.762277,
2005-03-04, 00:54:00,VALID,922.548,VALID,0,VALID,91.1067,VALID,0.0169808,VALID,21.093,VALID,48,VALID,0.719752,
2005-03-04, 00:55:00,VALID,922.546,VALID,0,VALID,91.394,VALID,0.0169808,VALID,21.0416,VALID,128,VALID,0.82168,
2005-03-04, 00:56:00,VALID,922.522,VALID,0,VALID,91.099,VALID,0.0339617,VALID,20.9891,VALID,31,VALID,0.947409,
2005-03-04, 00:57:01,VALID,922.514,VALID,0,VALID,91.2834,VALID,0.0169808,VALID,20.9802,VALID,72,VALID,1.49184,
2005-03-04, 00:58:00,VALID,922.512,VALID,0,VALID,91.4131,VALID,0,VALID,20.9603,VALID,55,VALID,1.4801,
2005-03-04, 00:59:00,VALID,922.497,VALID,0,VALID,91.3801,VALID,-0.0169808,VALID,20.9506,VALID,76,VALID,1.47311,
2005-03-04, 01:00:00,VALID,922.479,VALID,0,VALID,91.7514,VALID,-0.0169808,VALID,20.9484,VALID,71,VALID,1.49291,
2005-03-04, 01:01:01,VALID,922.46,VALID,0,VALID,91.7183,VALID,0.0339617,VALID,20.9186,VALID,60,VALID,1.76788,
2005-03-04, 01:02:01,VALID,922.482,VALID,0,VALID,91.7552,VALID,0.0169808,VALID,20.893,VALID,111,VALID,1.83994,
2005-03-04, 01:03:01,VALID,922.435,VALID,0,VALID,91.4029,VALID,0.0339617,VALID,20.8868,VALID,76,VALID,2.88209,
2005-03-04, 01:04:00,VALID,922.462,VALID,0,VALID,90.8498,VALID,0.0169808,VALID,20.896,VALID,97,VALID,3.62207,
2005-03-04, 01:05:01,VALID,922.437,VALID,0,VALID,90.9235,VALID,0,VALID,20.9415,VALID,75,VALID,1.91559,
2005-03-04, 01:06:00,VALID,922.431,VALID,0,VALID,91.2554,VALID,0.0169808,VALID,20.9248,VALID,94,VALID,3.80332,
2005-03-04, 01:07:01,VALID,922.414,VALID,0,VALID,91.2097,VALID,0.0169808,VALID,20.8833,VALID,106,VALID,3.15643,
2005-03-04, 01:08:00,VALID,922.386,VALID,0,VALID,91.1473,VALID,0,VALID,20.8933,VALID,89,VALID,2.14902,
2005-03-04, 01:09:01,VALID,922.394,VALID,0,VALID,91.5886,VALID,0.0169808,VALID,20.8898,VALID,78,VALID,1.8872,
2005-03-04, 01:10:01,VALID,922.401,VALID,0,VALID,92.1227,VALID,0,VALID,20.8416,VALID,58,VALID,1.95417,
2005-03-04, 01:11:00,VALID,922.355,VALID,0,VALID,91.642,VALID,-0.0169808,VALID,20.8109,VALID,97,VALID,3.55488,
2005-03-04, 01:12:01,VALID,922.345,VALID,0,VALID,91.876,VALID,-0.0509425,VALID,20.8042,VALID,113,VALID,2.27813,
2005-03-04, 01:13:01,VALID,922.309,VALID,0,VALID,91.7018,VALID,0.0169808,VALID,20.7767,VALID,102,VALID,3.14172,
2005-03-04, 01:14:01,VALID,922.291,VALID,0,VALID,91.4042,VALID,0,VALID,20.8093,VALID,61,VALID,2.75618,
2005-03-04, 01:15:01,VALID,922.246,VALID,0,VALID,91.0164,VALID,0.0169808,VALID,20.8456,VALID,112,VALID,2.6369,
2005-03-04, 01:16:01,VALID,922.242,VALID,0,VALID,91.4017,VALID,0.0339617,VALID,20.8612,VALID,137,VALID,3.0463,
2005-03-04, 01:17:00,VALID,922.253,VALID,0,VALID,91.2809,VALID,0.0169808,VALID,20.8481,VALID,112,VALID,2.25073,
2005-03-04, 01:18:01,VALID,922.247,VALID,0,VALID,90.7404,VALID,0,VALID,20.8486,VALID,84,VALID,2.88517,
2005-03-04, 01:19:01,VALID,922.257,VALID,0,VALID,90.9172,VALID,0,VALID,20.9,VALID,88,VALID,1.43864,
2005-03-04, 01:20:00,VALID,922.266,VALID,0,VALID,91.4729,VALID,0,VALID,20.8906,VALID,92,VALID,2.24346,
2005-03-04, 01:21:01,VALID,922.231,VALID,0,VALID,90.9439,VALID,0,VALID,20.8486,VALID,77,VALID,1.87614,
2005-03-04, 01:22:01,VALID,922.235,VALID,0,VALID,91.3546,VALID,0,VALID,20.8481,VALID,63,VALID,2.70406,
2005-03-04, 01:23:01,VALID,922.24,VALID,0,VALID,91.7552,VALID,0,VALID,20.8292,VALID,128,VALID,2.64304,
2005-03-04, 01:24:01,VALID,922.231,VALID,0,VALID,92.129,VALID,0,VALID,20.774,VALID,133,VALID,1.71265,
2005-03-04, 01:25:01,VALID,922.201,VALID,0,VALID,92.6173,VALID,-0.0169808,VALID,20.7291,VALID,105,VALID,1.75255,
2005-03-04, 01:26:00,VALID,922.181,VALID,0,VALID,92.6389,VALID,0,VALID,20.6645,VALID,107,VALID,2.16988,
2005-03-04, 01:27:01,VALID,922.152,VALID,0,VALID,92.4711,VALID,0.0169808,VALID,20.6451,VALID,102,VALID,2.32475,
2005-03-04, 01:28:01,VALID,922.115,VALID,0,VALID,92.7814,VALID,-0.101885,VALID,20.6402,VALID,146,VALID,1.85956,
2005-03-04, 01:29:01,VALID,922.085,VALID,0,VALID,93.1895,VALID,-0.101885,VALID,20.6241,VALID,128,VALID,1.78285,
2005-03-04, 01:30:01,VALID,922.062,VALID,0,VALID,93.5736,VALID,-0.101885,VALID,20.5816,VALID,46,VALID,1.07564,
2005-03-04, 01:31:00,VALID,922.078,VALID,0,VALID,93.763,VALID,-0.101885,VALID,20.5562,VALID,75,VALID,1.55115,
2005-03-04, 01:32:00,VALID,922.078,VALID,0,VALID,93.627,VALID,-0.101885,VALID,20.5277,VALID,113,VALID,2.04124,
2005-03-04, 01:33:01,VALID,922.015,VALID,0,VALID,93.4273,VALID,-0.0849042,VALID,20.5048,VALID,111,VALID,2.14156,
2005-03-04, 01:34:01,VALID,921.992,VALID,0,VALID,93.3205,VALID,-0.101885,VALID,20.5274,VALID,99,VALID,2.109,
2005-03-04, 01:35:01,VALID,921.978,VALID,0,VALID,93.4833,VALID,-0.101885,VALID,20.5438,VALID,131,VALID,1.29207,
2005-03-04, 01:36:01,VALID,921.937,VALID,0,VALID,93.9271,VALID,-0.118866,VALID,20.5304,VALID,138,VALID,0.899709,
2005-03-04, 01:37:01,VALID,921.915,VALID,0,VALID,94.0644,VALID,-0.101885,VALID,20.4887,VALID,134,VALID,1.81357,
2005-03-04, 01:38:01,VALID,921.89,VALID,0,VALID,94.3086,VALID,-0.101885,VALID,20.4564,VALID,116,VALID,1.96704,
2005-03-04, 01:39:01,VALID,921.886,VALID,0,VALID,94.5959,VALID,-0.101885,VALID,20.4211,VALID,113,VALID,1.89902,
2005-03-04, 01:40:01,VALID,921.87,VALID,0,VALID,94.9469,VALID,-0.118866,VALID,20.3856,VALID,55,VALID,1.77308,
2005-03-04, 01:41:01,VALID,921.816,VALID,0,VALID,94.6087,VALID,-0.101885,VALID,20.3565,VALID,123,VALID,1.52219,
2005-03-04, 01:42:01,VALID,921.762,VALID,0,VALID,94.7663,VALID,-0.0849042,VALID,20.3563,VALID,130,VALID,2.59914,
2005-03-04, 01:43:01,VALID,921.778,VALID,0,VALID,94.6544,VALID,0,VALID,20.3254,VALID,113,VALID,2.31758,
2005-03-04, 01:44:01,VALID,921.747,VALID,0,VALID,94.423,VALID,0,VALID,20.3316,VALID,109,VALID,1.98531,
2005-03-04, 01:45:01,VALID,921.737,VALID,0,VALID,94.5324,VALID,0,VALID,20.3485,VALID,125,VALID,1.78981,
2005-03-04, 01:46:01,VALID,921.723,VALID,0.2,VALID,94.7625,VALID,0.0169808,VALID,20.3351,VALID,124,VALID,2.25182,
2005-03-04, 01:47:01,VALID,921.7,VALID,0,VALID,95.041,VALID,0,VALID,20.3165,VALID,123,VALID,1.25605,
2005-03-04, 01:48:01,VALID,921.641,VALID,0,VALID,94.9482,VALID,0,VALID,20.2966,VALID,143,VALID,2.3032,
2005-03-04, 01:49:01,VALID,921.62,VALID,0,VALID,94.7956,VALID,0,VALID,20.2904,VALID,134,VALID,2.32404,
2005-03-04, 01:50:01,VALID,921.637,VALID,0,VALID,94.8007,VALID,0.0169808,VALID,20.2904,VALID,115,VALID,2.70573,
2005-03-04, 01:51:01,VALID,921.648,VALID,0,VALID,94.7905,VALID,0,VALID,20.3033,VALID,90,VALID,2.06975,
2005-03-04, 01:52:01,VALID,921.642,VALID,0,VALID,94.7879,VALID,0.0169808,VALID,20.3033,VALID,65,VALID,2.36094,
2005-03-04, 01:53:01,VALID,921.633,VALID,0,VALID,94.8566,VALID,0,VALID,20.2969,VALID,105,VALID,2.36966,
2005-03-04, 01:54:01,VALID,921.623,VALID,0,VALID,94.4599,VALID,0,VALID,20.2974,VALID,125,VALID,2.47461,
2005-03-04, 01:55:00,VALID,921.636,VALID,0,VALID,94.4497,VALID,0,VALID,20.3031,VALID,112,VALID,2.23201,
2005-03-04, 01:56:00,VALID,921.615,VALID,0,VALID,93.9067,VALID,-0.0169808,VALID,20.3252,VALID,91,VALID,3.38917,
2005-03-04, 01:57:00,VALID,921.623,VALID,0,VALID,94.0148,VALID,0,VALID,20.3647,VALID,89,VALID,2.09184,
2005-03-04, 01:58:00,VALID,921.596,VALID,0,VALID,94.1687,VALID,0.0169808,VALID,20.3679,VALID,107,VALID,1.86399,
2005-03-04, 01:59:00,VALID,921.604,VALID,0,VALID,94.3823,VALID,0.0339617,VALID,20.3512,VALID,108,VALID,1.55088,
2005-03-04, 02:00:00,VALID,921.582,VALID,0,VALID,94.2386,VALID,0.0169808,VALID,20.3321,VALID,81,VALID,1.80759,
2005-03-04, 02:01:00,VALID,921.561,VALID,0,VALID,94.6061,VALID,0,VALID,20.3361,VALID,70,VALID,1.20065,
2005-03-04, 02:02:00,VALID,921.551,VALID,0,VALID,94.7676,VALID,0,VALID,20.3195,VALID,118,VALID,1.3892,
2005-03-04, 02:03:00,VALID,921.542,VALID,0,VALID,94.8185,VALID,0.0169808,VALID,20.281,VALID,88,VALID,1.6452,
2005-03-04, 02:04:00,VALID,921.513,VALID,0,VALID,94.8541,VALID,0.0169808,VALID,20.2708,VALID,86,VALID,1.53252,
2005-03-04, 02:05:00,VALID,921.478,VALID,0,VALID,95.0524,VALID,0.0339617,VALID,20.2613,VALID,82,VALID,1.32771,
2005-03-04, 02:06:00,VALID,921.46,VALID,0,VALID,95.2178,VALID,0.0509425,VALID,20.2452,VALID,145,VALID,0.94308,
2005-03-04, 02:07:00,VALID,921.444,VALID,0,VALID,95.322,VALID,0.0169808,VALID,20.2161,VALID,105,VALID,1.43177,
2005-03-04, 02:08:00,VALID,921.441,VALID,0,VALID,95.2788,VALID,0.0509425,VALID,20.2166,VALID,115,VALID,1.89132,
2005-03-04, 02:09:00,VALID,921.417,VALID,0,VALID,95.3932,VALID,0.0169808,VALID,20.2,VALID,128,VALID,1.02976,
2005-03-04, 02:10:00,VALID,921.412,VALID,0,VALID,95.6336,VALID,0,VALID,20.2142,VALID,115,VALID,0.707304,
2005-03-04, 02:11:00,VALID,921.415,VALID,0,VALID,95.7722,VALID,0,VALID,20.1744,VALID,119,VALID,1.58012,
2005-03-04, 02:12:00,VALID,921.416,VALID,0,VALID,95.8281,VALID,0,VALID,20.1521,VALID,131,VALID,1.32656,
2005-03-04, 02:13:00,VALID,921.417,VALID,0,VALID,95.7518,VALID,0,VALID,20.1391,VALID,138,VALID,1.72184,
2005-03-04, 02:14:00,VALID,921.404,VALID,0,VALID,95.6743,VALID,0.0339617,VALID,20.1456,VALID,146,VALID,1.86986,
2005-03-04, 02:15:00,VALID,921.408,VALID,0,VALID,95.5802,VALID,0.0339617,VALID,20.1615,VALID,121,VALID,1.61005,
2005-03-04, 02:16:00,VALID,921.405,VALID,0.2,VALID,95.6069,VALID,0.0339617,VALID,20.1741,VALID,133,VALID,1.59966,
2005-03-04, 02:17:00,VALID,921.416,VALID,0,VALID,95.6997,VALID,0.0339617,VALID,20.1843,VALID,121,VALID,1.32943,
2005-03-04, 02:18:00,VALID,921.399,VALID,0,VALID,95.8269,VALID,0.0339617,VALID,20.1677,VALID,122,VALID,1.59339,
2005-03-04, 02:19:00,VALID,921.384,VALID,0,VALID,95.631,VALID,0.0339617,VALID,20.1615,VALID,127,VALID,2.41719,
2005-03-04, 02:20:00,VALID,921.381,VALID,0,VALID,95.5789,VALID,0.0169808,VALID,20.1749,VALID,124,VALID,1.99432,
2005-03-04, 02:21:00,VALID,921.335,VALID,0,VALID,95.7137,VALID,0.0169808,VALID,20.1776,VALID,72,VALID,0.620094,
2005-03-04, 02:22:00,VALID,921.33,VALID,0,VALID,95.8866,VALID,0,VALID,20.1779,VALID,99,VALID,0.789971,
2005-03-04, 02:23:00,VALID,921.297,VALID,0,VALID,96.0443,VALID,0,VALID,20.1585,VALID,143,VALID,1.50874,
2005-03-04, 02:24:00,VALID,921.267,VALID,0,VALID,96.1804,VALID,0.0339617,VALID,20.1327,VALID,141,VALID,1.97002,
2005-03-04, 02:25:00,VALID,921.215,VALID,0,VALID,96.1511,VALID,0.0169808,VALID,20.1198,VALID,126,VALID,2.22313,
2005-03-04, 02:26:00,VALID,921.2,VALID,0,VALID,96.2032,VALID,0.0169808,VALID,20.1068,VALID,110,VALID,1.57738,
2005-03-04, 02:27:00,VALID,921.182,VALID,0,VALID,96.3215,VALID,0.0169808,VALID,20.0966,VALID,128,VALID,1.85992,
2005-03-04, 02:28:00,VALID,921.14,VALID,0,VALID,96.2465,VALID,-0.0849042,VALID,20.1086,VALID,130,VALID,1.71736,
2005-03-04, 02:29:00,VALID,921.125,VALID,0,VALID,96.1435,VALID,-0.0509425,VALID,20.0982,VALID,145,VALID,2.36168,
2005-03-04, 02:30:00,VALID,921.121,VALID,0,VALID,96.1053,VALID,-0.0679233,VALID,20.1178,VALID,129,VALID,1.66908,
2005-03-04, 02:31:00,VALID,921.113,VALID,0,VALID,95.8879,VALID,-0.0509425,VALID,20.1501,VALID,69,VALID,2.69041,
2005-03-04, 02:32:00,VALID,921.103,VALID,0,VALID,95.5636,VALID,-0.101885,VALID,20.1891,VALID,146,VALID,3.42816,
2005-03-04, 02:33:00,VALID,921.124,VALID,0,VALID,95.4021,VALID,-0.0849042,VALID,20.195,VALID,134,VALID,1.93187,
2005-03-04, 02:34:00,VALID,921.11,VALID,0,VALID,95.5102,VALID,-0.118866,VALID,20.2254,VALID,124,VALID,1.79334,
2005-03-04, 02:35:00,VALID,921.095,VALID,0,VALID,95.5636,VALID,-0.0849042,VALID,20.2182,VALID,144,VALID,1.77553,
2005-03-04, 02:36:00,VALID,921.095,VALID,0,VALID,95.7417,VALID,-0.118866,VALID,20.2085,VALID,136,VALID,1.93445,
2005-03-04, 02:37:00,VALID,921.087,VALID,0,VALID,95.6781,VALID,-0.0509425,VALID,20.202,VALID,131,VALID,2.21545,
2005-03-04, 02:38:00,VALID,921.098,VALID,0,VALID,95.9833,VALID,-0.0849042,VALID,20.1856,VALID,137,VALID,1.39826,
2005-03-04, 02:39:00,VALID,921.107,VALID,0,VALID,96.2567,VALID,-0.0849042,VALID,20.1533,VALID,129,VALID,1.69551,
2005-03-04, 02:40:00,VALID,921.106,VALID,0,VALID,96.4016,VALID,-0.101885,VALID,20.128,VALID,124,VALID,1.64045,
2005-03-04, 02:41:00,VALID,921.097,VALID,0,VALID,96.2452,VALID,-0.0849042,VALID,20.092,VALID,126,VALID,2.5585,
2005-03-04, 02:42:00,VALID,921.049,VALID,0,VALID,95.8345,VALID,-0.0849042,VALID,20.1146,VALID,99,VALID,2.69255,
2005-03-04, 02:43:00,VALID,921.033,VALID,0,VALID,95.5509,VALID,-0.0849042,VALID,20.167,VALID,126,VALID,2.73958,
2005-03-04, 02:44:00,VALID,921.037,VALID,0,VALID,95.2457,VALID,-0.0679233,VALID,20.1921,VALID,104,VALID,2.35801,
2005-03-04, 02:45:00,VALID,921,VALID,0,VALID,94.3518,VALID,-0.0509425,VALID,20.2311,VALID,126,VALID,1.76744,
2005-03-04, 02:46:00,VALID,920.986,VALID,0,VALID,93.8431,VALID,-0.0679233,VALID,20.3118,VALID,107,VALID,1.7283,
2005-03-04, 02:47:00,VALID,920.987,VALID,0,VALID,93.8876,VALID,-0.0849042,VALID,20.3635,VALID,114,VALID,2.63244,
2005-03-04, 02:48:00,VALID,920.964,VALID,0,VALID,93.7796,VALID,-0.101885,VALID,20.406,VALID,144,VALID,2.56136,
2005-03-04, 02:49:00,VALID,920.972,VALID,0,VALID,94.1153,VALID,-0.0509425,VALID,20.4057,VALID,124,VALID,2.00927,
2005-03-04, 02:50:00,VALID,920.939,VALID,0,VALID,94.4955,VALID,-0.0849042,VALID,20.374,VALID,125,VALID,1.98865,
2005-03-04, 02:51:00,VALID,920.928,VALID,0,VALID,94.8973,VALID,-0.101885,VALID,20.3151,VALID,105,VALID,2.44985,
2005-03-04, 02:52:00,VALID,920.903,VALID,0,VALID,94.526,VALID,-0.0679233,VALID,20.2895,VALID,73,VALID,2.24962,
2005-03-04, 02:53:00,VALID,920.841,VALID,0,VALID,93.4553,VALID,-0.101885,VALID,20.3409,VALID,94,VALID,3.10521,
2005-03-04, 02:54:00,VALID,920.842,VALID,0,VALID,92.6186,VALID,-0.0679233,VALID,20.4442,VALID,128,VALID,2.79033,
2005-03-04, 02:55:00,VALID,920.829,VALID,0,VALID,92.096,VALID,-0.0849042,VALID,20.5347,VALID,119,VALID,2.72783,
2005-03-04, 02:56:00,VALID,920.817,VALID,0,VALID,91.6725,VALID,-0.0849042,VALID,20.606,VALID,95,VALID,2.92812,
2005-03-04, 02:57:00,VALID,920.814,VALID,0,VALID,91.8951,VALID,-0.0679233,VALID,20.638,VALID,149,VALID,2.37324,
2005-03-04, 02:58:00,VALID,920.786,VALID,0,VALID,91.3279,VALID,-0.0509425,VALID,20.6348,VALID,136,VALID,1.63645,
2005-03-04, 02:59:00,VALID,920.771,VALID,0,VALID,91.9446,VALID,-0.0339617,VALID,20.6571,VALID,48,VALID,2.29459,
2005-03-04, 03:00:00,VALID,920.737,VALID,0,VALID,92.2091,VALID,-0.0849042,VALID,20.6219,VALID,66,VALID,2.84205,
2005-03-04, 03:01:00,VALID,920.739,VALID,0,VALID,92.4736,VALID,-0.0679233,VALID,20.5826,VALID,130,VALID,2.02801,
2005-03-04, 03:02:00,VALID,920.721,VALID,0,VALID,92.7241,VALID,-0.0509425,VALID,20.5573,VALID,126,VALID,2.46627,
2005-03-04, 03:03:00,VALID,920.692,VALID,0,VALID,92.8793,VALID,-0.0679233,VALID,20.5277,VALID,140,VALID,2.04365,
2005-03-04, 03:04:00,VALID,920.709,VALID,0,VALID,93.1132,VALID,-0.101885,VALID,20.5091,VALID,90,VALID,2.12571,
2005-03-04, 03:05:00,VALID,920.723,VALID,0,VALID,93.4426,VALID,-0.0679233,VALID,20.4763,VALID,98,VALID,1.80342,
2005-03-04, 03:06:00,VALID,920.695,VALID,0,VALID,93.9245,VALID,-0.0679233,VALID,20.4278,VALID,119,VALID,1.90843,
2005-03-04, 03:07:00,VALID,920.696,VALID,0,VALID,93.6893,VALID,-0.0509425,VALID,20.3794,VALID,112,VALID,1.84375,
2005-03-04, 03:08:00,VALID,920.679,VALID,0,VALID,93.6155,VALID,-0.0509425,VALID,20.3796,VALID,90,VALID,1.56445,
2005-03-04, 03:09:00,VALID,920.674,VALID,0,VALID,93.4019,VALID,-0.0509425,VALID,20.3923,VALID,113,VALID,2.05806,
2005-03-04, 03:10:00,VALID,920.678,VALID,0,VALID,93.6282,VALID,-0.0509425,VALID,20.4017,VALID,115,VALID,2.137,
2005-03-04, 03:11:00,VALID,920.668,VALID,0,VALID,93.7834,VALID,-0.0849042,VALID,20.4052,VALID,133,VALID,1.47771,
2005-03-04, 03:12:00,VALID,920.648,VALID,0,VALID,92.8335,VALID,-0.0509425,VALID,20.4017,VALID,128,VALID,3.35302,
2005-03-04, 03:13:00,VALID,920.658,VALID,0,VALID,92.3159,VALID,-0.0509425,VALID,20.4792,VALID,115,VALID,2.63808,
2005-03-04, 03:14:00,VALID,920.648,VALID,0,VALID,91.684,VALID,-0.0509425,VALID,20.5506,VALID,85,VALID,2.59102,
2005-03-04, 03:15:00,VALID,920.652,VALID,0,VALID,91.6636,VALID,-0.0679233,VALID,20.5985,VALID,40,VALID,1.78496,
2005-03-04, 03:16:00,VALID,920.689,VALID,0,VALID,91.7831,VALID,-0.0679233,VALID,20.6345,VALID,104,VALID,1.82558,
2005-03-04, 03:17:00,VALID,920.708,VALID,0,VALID,92.1595,VALID,-0.0849042,VALID,20.6092,VALID,113,VALID,1.6935,
2005-03-04, 03:18:00,VALID,920.695,VALID,0,VALID,92.5016,VALID,-0.101885,VALID,20.557,VALID,136,VALID,1.1891,
2005-03-04, 03:19:00,VALID,920.675,VALID,0,VALID,92.6974,VALID,-0.0339617,VALID,20.5317,VALID,150,VALID,1.82267,
2005-03-04, 03:20:00,VALID,920.642,VALID,0,VALID,93.2264,VALID,-0.0849042,VALID,20.4792,VALID,123,VALID,0.958984,
2005-03-04, 03:21:00,VALID,920.641,VALID,0,VALID,93.4947,VALID,-0.0679233,VALID,20.4308,VALID,118,VALID,1.51581,
2005-03-04, 03:22:00,VALID,920.609,VALID,0,VALID,93.112,VALID,-0.0679233,VALID,20.392,VALID,139,VALID,2.00923,
2005-03-04, 03:23:00,VALID,920.61,VALID,0,VALID,92.7648,VALID,-0.101885,VALID,20.4085,VALID,122,VALID,2.18142,
2005-03-04, 03:24:00,VALID,920.626,VALID,0,VALID,92.4355,VALID,-0.0679233,VALID,20.4703,VALID,129,VALID,2.0277,
2005-03-04, 03:25:00,VALID,920.595,VALID,0,VALID,92.3198,VALID,-0.0849042,VALID,20.4924,VALID,102,VALID,3.2619,
2005-03-04, 03:26:00,VALID,920.598,VALID,0,VALID,92.363,VALID,-0.0849042,VALID,20.5185,VALID,120,VALID,2.35316,
2005-03-04, 03:27:00,VALID,920.604,VALID,0,VALID,92.5092,VALID,-0.0849042,VALID,20.5126,VALID,136,VALID,2.34102,
2005-03-04, 03:28:00,VALID,920.615,VALID,0,VALID,92.7547,VALID,-0.0679233,VALID,20.4892,VALID,123,VALID,1.52418,
2005-03-04, 03:29:00,VALID,920.592,VALID,0,VALID,92.8894,VALID,-0.0849042,VALID,20.4698,VALID,132,VALID,0.851749,
2005-03-04, 03:30:00,VALID,920.623,VALID,0,VALID,92.9963,VALID,-0.0679233,VALID,20.4539,VALID,141,VALID,1.73383,
2005-03-04, 03:31:00,VALID,920.595,VALID,0,VALID,92.9963,VALID,-0.0679233,VALID,20.4448,VALID,132,VALID,1.75419,
2005-03-04, 03:32:00,VALID,920.577,VALID,0,VALID,92.8093,VALID,-0.101885,VALID,20.4246,VALID,133,VALID,1.71708,
2005-03-04, 03:33:00,VALID,920.579,VALID,0,VALID,92.2498,VALID,-0.0679233,VALID,20.4308,VALID,108,VALID,1.41864,
2005-03-04, 03:34:00,VALID,920.537,VALID,0,VALID,92.4546,VALID,-0.101885,VALID,20.4701,VALID,144,VALID,1.73047,